ATLAS 5 CENTAUR DEB, 44646

Orbit data source: Space-Track

ATLAS 5 CENTAUR DEB, 44646 is space debris in HEO originally from a launch on Wed, 17 Oct 2018 UTC launched from the Air Force Eastern Test Range (AFETR). Debris objects in space refer to the collection of defunct objects orbiting the Earth. Examples of debris include non-operational satellites, rocket bodies, and fragments generated from explosions, collisions, or faulty payload assembly.

Loading next visibility...
Identifier
44646, 2018-079G
Orbit
HEO
Country
Flag of USUS
Related business
Flag of USUnited Launch Alliance/Lockheed Martin (US)
Manufacturer
ULA Decatur
Mission
Spacecraft
Bus & Motor
Unknown
Mass
Unknown
Launch date (UTC)
2018-10-17 (8 years ago)
Launch vehicle
Unknown
Launch site
Air Force Eastern Test Range (AFETR)
Object type
Payload
Rocket body
Debris
Shape & HBR
Unknown shape, 1.1 m
Radar Cross Section
RCS unknown

Expand to show TLE details & history
Last TLE update: 14 hours ago

TLE from 14 hours ago
0 ATLAS 5 CENTAUR DEB
1 44646U 18079G   26127.57561332 -.00000141  00000-0  00000-0 0  9996
2 44646  13.7419  19.7770 4744100 341.8795   5.8690  1.86008764 51283
Epoch: 2026-05-07T13:48Z
TLE epoch observation values (Epoch: 2026-05-07T13:48:52.990Z)
Latitude
0.00001°
Longitude
-52.88766°
Altitude
8,537.761 km
Speed
6.259 km/s
True Right ascension
01h 19m 00s
True Declination
0° 00' 00"
Sunlit
Object was in daylight at epoch
Visualization orbit readout
Latitude
Unknown
Longitude
Unknown
Altitude
Unknown
Speed
Unknown
Apparent Right ascension
Unknown
Apparent Declination
Unknown
Sunlit
N/A
Visualization observer readout
Local Sidereal Time
11:42:46
Azimuth
Unknown
Elevation
Unknown
Doppler factor
Unknown
Orbital elements
Apogee altitude
34,802.938 km
Perigee altitude
8,301.878 km
Semi-major axis
27,930.545 km
Eccentricity
0.47441
Inclination
13.7419°
RAAN
19.777°
Arg. of periapsis
341.8795°
True anomaly
18.49391°
Mean anomaly
5.869°
Eccentric anomaly
11.10388°
Mean motion
0.46497 °/min
Orbital period
774.25 mins
BSTAR
0
Loading maneuver chart data...
Computing Atmospheric mass density...

Documentation

Showing up to 5 results
|